Time,TemperatureF,DewpointF,PressureIn,WindDirection,WindDirectionDegrees,WindSpeedMPH,WindSpeedGustMPH,Humidity,HourlyPrecipIn,Conditions,Clouds,dailyrainin,SoftwareType,DateUTC
2013-09-30 00:00:00,62.3,36.4,29.81,SSW,210,6.0,7.0,38,0.00,,,0.00,Wunderground v.1.15,2013-09-30 06:00:00,
2013-09-30 00:06:00,62.3,35.7,29.81,SSW,193,5.0,7.0,37,0.00,,,0.00,Wunderground v.1.15,2013-09-30 06:06:00,
2013-09-30 00:12:00,62.3,35.7,29.81,South,181,4.0,7.0,37,0.00,,,0.00,Wunderground v.1.15,2013-09-30 06:12:00,
2013-09-30 00:18:00,61.5,36.3,29.81,SW,233,1.0,7.0,39,0.00,,,0.00,Wunderground v.1.15,2013-09-30 06:18:00,
2013-09-30 00:24:00,60.5,36.0,29.81,SW,233,0.0,7.0,40,0.00,,,0.00,Wunderground v.1.15,2013-09-30 06:24:00,
2013-09-30 00:30:00,60.1,36.3,29.81,SW,231,0.0,7.0,41,0.00,,,0.00,Wunderground v.1.15,2013-09-30 06:30:00,
2013-09-30 00:36:00,59.6,36.5,29.81,SW,231,0.0,7.0,42,0.00,,,0.00,Wunderground v.1.15,2013-09-30 06:36:00,
2013-09-30 00:42:00,58.9,37.0,29.81,WNW,291,1.0,7.0,44,0.00,,,0.00,Wunderground v.1.15,2013-09-30 06:42:00,
2013-09-30 00:48:00,58.1,36.9,29.81,SW,230,2.0,7.0,45,0.00,,,0.00,Wunderground v.1.15,2013-09-30 06:48:00,
2013-09-30 00:54:00,57.6,36.4,29.81,WSW,239,2.0,7.0,45,0.00,,,0.00,Wunderground v.1.15,2013-09-30 06:54:00,
2013-09-30 01:00:00,57.7,36.5,29.81,WSW,253,2.0,2.0,45,0.00,,,0.00,Wunderground v.1.15,2013-09-30 07:00:00,
2013-09-30 01:06:00,57.6,37.0,29.81,WNW,299,2.0,7.0,46,0.00,,,0.00,Wunderground v.1.15,2013-09-30 07:06:00,
2013-09-30 01:12:00,56.9,36.9,29.81,SSW,193,2.0,7.0,47,0.00,,,0.00,Wunderground v.1.15,2013-09-30 07:12:00,
2013-09-30 01:18:00,56.6,36.6,29.81,WSW,247,2.0,7.0,47,0.00,,,0.00,Wunderground v.1.15,2013-09-30 07:18:00,
2013-09-30 01:24:00,57.3,36.7,29.81,SW,221,2.0,7.0,46,0.00,,,0.00,Wunderground v.1.15,2013-09-30 07:24:00,
2013-09-30 01:30:00,58.3,36.5,29.81,SW,224,1.0,7.0,44,0.00,,,0.00,Wunderground v.1.15,2013-09-30 07:30:00,
2013-09-30 01:36:00,59.0,36.5,29.81,WSW,237,2.0,7.0,43,0.00,,,0.00,Wunderground v.1.15,2013-09-30 07:36:00,
2013-09-30 01:42:00,61.6,37.0,29.81,WSW,249,4.0,7.0,40,0.00,,,0.00,Wunderground v.1.15,2013-09-30 07:42:00,
2013-09-30 01:48:00,61.6,37.0,29.81,WNW,293,3.0,7.0,40,0.00,,,0.00,Wunderground v.1.15,2013-09-30 07:48:00,
2013-09-30 01:54:00,60.1,37.5,29.80,West,273,3.0,7.0,43,0.00,,,0.00,Wunderground v.1.15,2013-09-30 07:54:00,
2013-09-30 02:00:00,58.5,37.2,29.80,WSW,252,3.0,7.0,45,0.00,,,0.00,Wunderground v.1.15,2013-09-30 08:00:00,
2013-09-30 02:06:00,59.3,37.4,29.80,WSW,241,3.0,7.0,44,0.00,,,0.00,Wunderground v.1.15,2013-09-30 08:06:00,
2013-09-30 02:12:00,60.2,37.6,29.80,WSW,253,3.0,7.0,43,0.00,,,0.00,Wunderground v.1.15,2013-09-30 08:12:00,
2013-09-30 02:18:00,59.4,37.5,29.80,West,260,2.0,7.0,44,0.00,,,0.00,Wunderground v.1.15,2013-09-30 08:18:00,
2013-09-30 02:24:00,56.8,37.3,29.80,WNW,293,1.0,7.0,48,0.00,,,0.00,Wunderground v.1.15,2013-09-30 08:24:00,
2013-09-30 02:30:00,55.5,37.1,29.80,WNW,287,1.0,7.0,50,0.00,,,0.00,Wunderground v.1.15,2013-09-30 08:30:00,
2013-09-30 02:36:00,55.7,37.3,29.80,West,275,1.0,7.0,50,0.00,,,0.00,Wunderground v.1.15,2013-09-30 08:36:00,
2013-09-30 02:42:00,55.7,36.8,29.80,West,275,0.0,7.0,49,0.00,,,0.00,Wunderground v.1.15,2013-09-30 08:42:00,
2013-09-30 02:48:00,56.2,36.8,29.79,West,274,0.0,7.0,48,0.00,,,0.00,Wunderground v.1.15,2013-09-30 08:48:00,
2013-09-30 02:54:00,56.8,36.8,29.79,West,274,1.0,7.0,47,0.00,,,0.00,Wunderground v.1.15,2013-09-30 08:54:00,
2013-09-30 03:00:00,56.8,36.8,29.79,WSW,247,1.0,7.0,47,0.00,,,0.00,Wunderground v.1.15,2013-09-30 09:00:00,
2013-09-30 03:06:00,56.6,36.6,29.79,WSW,239,1.0,7.0,47,0.00,,,0.00,Wunderground v.1.15,2013-09-30 09:06:00,
2013-09-30 03:12:00,57.1,37.0,29.79,WSW,249,1.0,7.0,47,0.00,,,0.00,Wunderground v.1.15,2013-09-30 09:12:00,
2013-09-30 03:18:00,57.5,37.4,29.80,West,260,2.0,7.0,47,0.00,,,0.00,Wunderground v.1.15,2013-09-30 09:18:00,
2013-09-30 03:24:00,58.4,37.1,29.79,West,260,2.0,7.0,45,0.00,,,0.00,Wunderground v.1.15,2013-09-30 09:24:00,
2013-09-30 03:30:00,58.4,37.1,29.80,WSW,256,2.0,2.0,45,0.00,,,0.00,Wunderground v.1.15,2013-09-30 09:30:00,
2013-09-30 03:36:00,58.2,36.9,29.80,WSW,256,0.0,7.0,45,0.00,,,0.00,Wunderground v.1.15,2013-09-30 09:36:00,
2013-09-30 03:42:00,58.0,36.8,29.80,WSW,256,0.0,7.0,45,0.00,,,0.00,Wunderground v.1.15,2013-09-30 09:42:00,
2013-09-30 03:48:00,57.7,36.5,29.79,WSW,256,0.0,7.0,45,0.00,,,0.00,Wunderground v.1.15,2013-09-30 09:48:00,
2013-09-30 03:54:00,58.3,37.0,29.79,WNW,303,1.0,8.0,45,0.00,,,0.00,Wunderground v.1.15,2013-09-30 09:54:00,
2013-09-30 04:00:00,59.6,37.6,29.80,WNW,302,3.0,3.0,44,0.00,,,0.00,Wunderground v.1.15,2013-09-30 10:00:00,
2013-09-30 04:06:00,58.7,36.8,29.79,WNW,291,1.0,7.0,44,0.00,,,0.00,Wunderground v.1.15,2013-09-30 10:06:00,
2013-09-30 04:12:00,59.8,37.2,29.79,West,272,2.0,7.0,43,0.00,,,0.00,Wunderground v.1.15,2013-09-30 10:12:00,
2013-09-30 04:18:00,61.2,37.3,29.79,West,279,5.0,8.0,41,0.00,,,0.00,Wunderground v.1.15,2013-09-30 10:18:00,
2013-09-30 04:24:00,60.8,36.9,29.79,WSW,254,5.0,7.0,41,0.00,,,0.00,Wunderground v.1.15,2013-09-30 10:24:00,
2013-09-30 04:30:00,60.4,37.2,29.79,WSW,251,4.0,4.0,42,0.00,,,0.00,Wunderground v.1.15,2013-09-30 10:30:00,
2013-09-30 04:36:00,60.2,37.0,29.79,NW,308,4.0,7.0,42,0.00,,,0.00,Wunderground v.1.15,2013-09-30 10:36:00,
2013-09-30 04:42:00,58.5,37.2,29.79,NW,323,3.0,7.0,45,0.00,,,0.00,Wunderground v.1.15,2013-09-30 10:42:00,
2013-09-30 04:48:00,57.1,37.0,29.79,NW,305,1.0,7.0,47,0.00,,,0.00,Wunderground v.1.15,2013-09-30 10:48:00,
2013-09-30 04:54:00,56.7,37.2,29.78,NW,306,0.0,7.0,48,0.00,,,0.00,Wunderground v.1.15,2013-09-30 10:54:00,
2013-09-30 05:00:00,56.5,37.0,29.78,NW,305,0.0,7.0,48,0.00,,,0.00,Wunderground v.1.15,2013-09-30 11:00:00,
2013-09-30 05:06:00,56.5,37.0,29.78,NW,305,0.0,7.0,48,0.00,,,0.00,Wunderground v.1.15,2013-09-30 11:06:00,
2013-09-30 05:12:00,56.0,37.1,29.78,NNE,29,0.0,7.0,49,0.00,,,0.00,Wunderground v.1.15,2013-09-30 11:12:00,
2013-09-30 05:18:00,55.5,37.1,29.79,NNE,29,0.0,7.0,50,0.00,,,0.00,Wunderground v.1.15,2013-09-30 11:18:00,
2013-09-30 05:24:00,55.2,36.9,29.79,NNE,27,0.0,7.0,50,0.00,,,0.00,Wunderground v.1.15,2013-09-30 11:24:00,
2013-09-30 05:30:00,55.4,36.5,29.79,ENE,58,0.0,7.0,49,0.00,,,0.00,Wunderground v.1.15,2013-09-30 11:30:00,
2013-09-30 05:36:00,55.4,36.5,29.80,ENE,61,1.0,7.0,49,0.00,,,0.00,Wunderground v.1.15,2013-09-30 11:36:00,
2013-09-30 05:42:00,55.2,36.4,29.81,ENE,61,1.0,7.0,49,0.00,,,0.00,Wunderground v.1.15,2013-09-30 11:42:00,
2013-09-30 05:48:00,54.9,36.6,29.80,South,177,1.0,7.0,50,0.00,,,0.00,Wunderground v.1.15,2013-09-30 11:48:00,
2013-09-30 05:54:00,55.1,36.3,29.79,South,177,1.0,7.0,49,0.00,,,0.00,Wunderground v.1.15,2013-09-30 11:54:00,
2013-09-30 06:00:00,56.1,36.7,29.79,South,177,0.0,7.0,48,0.00,,,0.00,Wunderground v.1.15,2013-09-30 12:00:00,
2013-09-30 06:06:00,56.3,36.3,29.79,ESE,118,0.0,7.0,47,0.00,,,0.00,Wunderground v.1.15,2013-09-30 12:06:00,
2013-09-30 06:12:00,54.6,36.3,29.79,ESE,118,1.0,7.0,50,0.00,,,0.00,Wunderground v.1.15,2013-09-30 12:12:00,
2013-09-30 06:18:00,53.9,36.2,29.79,ESE,118,0.0,7.0,51,0.00,,,0.00,Wunderground v.1.15,2013-09-30 12:18:00,
2013-09-30 06:24:00,53.6,36.4,29.79,ESE,118,0.0,7.0,52,0.00,,,0.00,Wunderground v.1.15,2013-09-30 12:24:00,
2013-09-30 06:30:00,53.6,36.4,29.78,ESE,118,0.0,7.0,52,0.00,,,0.00,Wunderground v.1.15,2013-09-30 12:30:00,
2013-09-30 06:36:00,53.9,36.7,29.78,ESE,118,0.0,7.0,52,0.00,,,0.00,Wunderground v.1.15,2013-09-30 12:36:00,
2013-09-30 06:42:00,53.2,36.5,29.78,ESE,118,0.0,7.0,53,0.00,,,0.00,Wunderground v.1.15,2013-09-30 12:42:00,
2013-09-30 06:48:00,51.7,36.5,29.78,ESE,118,0.0,7.0,56,0.00,,,0.00,Wunderground v.1.15,2013-09-30 12:48:00,
2013-09-30 06:54:00,50.8,36.5,29.78,ESE,118,1.0,7.0,58,0.00,,,0.00,Wunderground v.1.15,2013-09-30 12:54:00,
2013-09-30 07:00:00,51.5,36.8,29.77,ESE,118,1.0,7.0,57,0.00,,,0.00,Wunderground v.1.15,2013-09-30 13:00:00,
2013-09-30 07:06:00,53.2,37.4,29.77,ESE,118,1.0,7.0,55,0.00,,,0.00,Wunderground v.1.15,2013-09-30 13:06:00,
2013-09-30 07:12:00,54.1,37.3,29.77,ESE,118,0.0,7.0,53,0.00,,,0.00,Wunderground v.1.15,2013-09-30 13:12:00,
2013-09-30 07:18:00,54.7,37.4,29.78,ESE,118,0.0,7.0,52,0.00,,,0.00,Wunderground v.1.15,2013-09-30 13:18:00,
2013-09-30 07:24:00,55.3,38.4,29.77,ESE,118,0.0,7.0,53,0.00,,,0.00,Wunderground v.1.15,2013-09-30 13:24:00,
2013-09-30 07:30:00,53.8,38.0,29.78,ESE,118,0.0,7.0,55,0.00,,,0.00,Wunderground v.1.15,2013-09-30 13:30:00,
2013-09-30 07:36:00,54.2,38.4,29.77,ESE,118,1.0,7.0,55,0.00,,,0.00,Wunderground v.1.15,2013-09-30 13:36:00,
2013-09-30 07:42:00,55.3,38.9,29.77,East,87,1.0,7.0,54,0.00,,,0.00,Wunderground v.1.15,2013-09-30 13:42:00,
2013-09-30 07:48:00,55.9,39.5,29.78,East,87,0.0,7.0,54,0.00,,,0.00,Wunderground v.1.15,2013-09-30 13:48:00,
2013-09-30 07:54:00,56.4,39.0,29.77,East,87,0.0,7.0,52,0.00,,,0.00,Wunderground v.1.15,2013-09-30 13:54:00,
2013-09-30 08:00:00,57.4,39.4,29.77,East,87,0.0,7.0,51,0.00,,,0.00,Wunderground v.1.15,2013-09-30 14:00:00,
2013-09-30 08:06:00,57.7,39.7,29.77,SE,140,1.0,7.0,51,0.00,,,0.00,Wunderground v.1.15,2013-09-30 14:06:00,
2013-09-30 08:12:00,57.7,40.2,29.77,SSE,165,1.0,7.0,52,0.00,,,0.00,Wunderground v.1.15,2013-09-30 14:12:00,
2013-09-30 08:18:00,58.0,40.5,29.76,ESE,115,1.0,7.0,52,0.00,,,0.00,Wunderground v.1.15,2013-09-30 14:18:00,
2013-09-30 08:24:00,58.1,40.1,29.75,SW,225,1.0,7.0,51,0.00,,,0.00,Wunderground v.1.15,2013-09-30 14:24:00,
2013-09-30 08:30:00,58.6,40.5,29.75,WSW,239,2.0,2.0,51,0.00,,,0.00,Wunderground v.1.15,2013-09-30 14:30:00,
2013-09-30 08:36:00,58.9,40.3,29.75,WNW,293,1.0,7.0,50,0.00,,,0.00,Wunderground v.1.15,2013-09-30 14:36:00,
2013-09-30 08:42:00,60.0,40.2,29.74,South,170,1.0,7.0,48,0.00,,,0.00,Wunderground v.1.15,2013-09-30 14:42:00,
2013-09-30 08:48:00,61.4,39.9,29.74,South,183,5.0,8.0,45,0.00,,,0.00,Wunderground v.1.15,2013-09-30 14:48:00,
2013-09-30 08:54:00,62.8,40.5,29.74,SSE,166,6.0,7.0,44,0.00,,,0.00,Wunderground v.1.15,2013-09-30 14:54:00,
2013-09-30 09:00:00,63.6,40.7,29.74,South,188,5.0,7.0,43,0.00,,,0.00,Wunderground v.1.15,2013-09-30 15:00:00,
2013-09-30 09:06:00,63.7,40.2,29.74,South,183,6.0,7.0,42,0.00,,,0.00,Wunderground v.1.15,2013-09-30 15:06:00,
2013-09-30 09:12:00,63.8,40.3,29.74,South,187,7.0,8.0,42,0.00,,,0.00,Wunderground v.1.15,2013-09-30 15:12:00,
2013-09-30 09:18:00,64.2,41.2,29.74,SSE,165,7.0,8.0,43,0.00,,,0.00,Wunderground v.1.15,2013-09-30 15:18:00,
2013-09-30 09:24:00,64.8,41.2,29.73,South,180,6.0,7.0,42,0.00,,,0.00,Wunderground v.1.15,2013-09-30 15:24:00,
2013-09-30 09:30:00,65.7,42.0,29.73,SSE,149,6.0,7.0,42,0.00,,,0.00,Wunderground v.1.15,2013-09-30 15:30:00,
2013-09-30 09:36:00,66.7,42.9,29.73,South,172,6.0,8.0,42,0.00,,,0.00,Wunderground v.1.15,2013-09-30 15:36:00,
2013-09-30 09:42:00,67.3,42.8,29.73,SSE,165,6.0,7.0,41,0.00,,,0.00,Wunderground v.1.15,2013-09-30 15:42:00,
2013-09-30 09:48:00,68.2,42.9,29.72,SE,139,6.0,7.0,40,0.00,,,0.00,Wunderground v.1.15,2013-09-30 15:48:00,
2013-09-30 09:54:00,69.4,43.4,29.72,SSW,193,6.0,8.0,39,0.00,,,0.00,Wunderground v.1.15,2013-09-30 15:54:00,
2013-09-30 10:00:00,70.5,42.2,29.72,SE,143,6.0,7.0,36,0.00,,,0.00,Wunderground v.1.15,2013-09-30 16:00:00,
2013-09-30 10:06:00,71.7,42.6,29.72,South,183,5.0,7.0,35,0.00,,,0.00,Wunderground v.1.15,2013-09-30 16:06:00,
2013-09-30 10:12:00,73.2,41.6,29.72,South,185,3.0,7.0,32,0.00,,,0.00,Wunderground v.1.15,2013-09-30 16:12:00,
2013-09-30 10:18:00,74.3,40.0,29.72,WSW,237,3.0,7.0,29,0.00,,,0.00,Wunderground v.1.15,2013-09-30 16:18:00,
2013-09-30 10:24:00,74.8,40.4,29.71,WSW,243,5.0,8.0,29,0.00,,,0.00,Wunderground v.1.15,2013-09-30 16:24:00,
2013-09-30 10:30:00,75.2,38.9,29.70,SSW,201,8.0,8.0,27,0.00,,,0.00,Wunderground v.1.15,2013-09-30 16:30:00,
2013-09-30 10:36:00,75.0,37.8,29.70,SW,229,8.0,10.0,26,0.00,,,0.00,Wunderground v.1.15,2013-09-30 16:36:00,
2013-09-30 10:42:00,74.8,38.6,29.70,WSW,241,7.0,9.0,27,0.00,,,0.00,Wunderground v.1.15,2013-09-30 16:42:00,
2013-09-30 10:48:00,74.9,39.6,29.70,South,190,5.0,9.0,28,0.00,,,0.00,Wunderground v.1.15,2013-09-30 16:48:00,
2013-09-30 10:54:00,75.7,40.3,29.70,South,172,5.0,8.0,28,0.00,,,0.00,Wunderground v.1.15,2013-09-30 16:54:00,
2013-09-30 11:00:00,76.0,39.6,29.69,SSW,212,5.0,5.0,27,0.00,,,0.00,Wunderground v.1.15,2013-09-30 17:00:00,
2013-09-30 11:06:00,76.4,39.0,29.69,SW,218,4.0,11.0,26,0.00,,,0.00,Wunderground v.1.15,2013-09-30 17:06:00,
2013-09-30 11:12:00,76.1,38.7,29.69,South,185,5.0,7.0,26,0.00,,,0.00,Wunderground v.1.15,2013-09-30 17:12:00,
2013-09-30 11:18:00,75.5,38.2,29.69,WSW,251,5.0,7.0,26,0.00,,,0.00,Wunderground v.1.15,2013-09-30 17:18:00,
2013-09-30 11:24:00,75.0,38.7,29.68,WSW,255,4.0,7.0,27,0.00,,,0.00,Wunderground v.1.15,2013-09-30 17:24:00,
2013-09-30 11:30:00,74.9,39.6,29.68,SW,229,5.0,8.0,28,0.00,,,0.00,Wunderground v.1.15,2013-09-30 17:30:00,
2013-09-30 11:36:00,74.9,40.5,29.68,WSW,244,6.0,8.0,29,0.00,,,0.00,Wunderground v.1.15,2013-09-30 17:36:00,
2013-09-30 11:42:00,74.8,40.4,29.68,WSW,241,5.0,7.0,29,0.00,,,0.00,Wunderground v.1.15,2013-09-30 17:42:00,
2013-09-30 11:48:00,74.7,40.3,29.67,WSW,239,5.0,7.0,29,0.00,,,0.00,Wunderground v.1.15,2013-09-30 17:48:00,
2013-09-30 11:54:00,74.9,40.5,29.67,West,262,6.0,9.0,29,0.00,,,0.00,Wunderground v.1.15,2013-09-30 17:54:00,
2013-09-30 12:00:00,75.3,39.9,29.67,WSW,249,7.0,11.0,28,0.00,,,0.00,Wunderground v.1.15,2013-09-30 18:00:00,
2013-09-30 12:06:00,75.8,41.3,29.66,WSW,258,7.0,11.0,29,0.00,,,0.00,Wunderground v.1.15,2013-09-30 18:06:00,
2013-09-30 12:12:00,76.7,41.1,29.66,SW,229,6.0,9.0,28,0.00,,,0.00,Wunderground v.1.15,2013-09-30 18:12:00,
2013-09-30 12:18:00,77.2,37.6,29.65,WSW,246,8.0,12.0,24,0.00,,,0.00,Wunderground v.1.15,2013-09-30 18:18:00,
2013-09-30 12:24:00,76.8,38.3,29.66,WSW,242,11.0,13.0,25,0.00,,,0.00,Wunderground v.1.15,2013-09-30 18:24:00,
2013-09-30 12:30:00,76.8,38.3,29.66,WSW,247,10.0,10.0,25,0.00,,,0.00,Wunderground v.1.15,2013-09-30 18:30:00,
2013-09-30 12:36:00,76.9,38.4,29.66,WSW,251,8.0,10.0,25,0.00,,,0.00,Wunderground v.1.15,2013-09-30 18:36:00,
2013-09-30 12:42:00,77.3,38.7,29.65,SW,222,6.0,8.0,25,0.00,,,0.00,Wunderground v.1.15,2013-09-30 18:42:00,
2013-09-30 12:48:00,78.5,38.7,29.65,WSW,239,6.0,8.0,24,0.00,,,0.00,Wunderground v.1.15,2013-09-30 18:48:00,
2013-09-30 12:54:00,78.7,36.6,29.64,SSW,211,4.0,7.0,22,0.00,,,0.00,Wunderground v.1.15,2013-09-30 18:54:00,
2013-09-30 13:00:00,78.8,38.9,29.64,SW,233,2.0,7.0,24,0.00,,,0.00,Wunderground v.1.15,2013-09-30 19:00:00,
2013-09-30 13:06:00,79.0,38.0,29.64,SW,221,3.0,8.0,23,0.00,,,0.00,Wunderground v.1.15,2013-09-30 19:06:00,
2013-09-30 13:12:00,79.4,37.2,29.63,WSW,256,4.0,10.0,22,0.00,,,0.00,Wunderground v.1.15,2013-09-30 19:12:00,
2013-09-30 13:18:00,79.9,37.6,29.63,WSW,258,8.0,12.0,22,0.00,,,0.00,Wunderground v.1.15,2013-09-30 19:18:00,
2013-09-30 13:24:00,80.3,36.8,29.63,WNW,302,9.0,9.0,21,0.00,,,0.00,Wunderground v.1.15,2013-09-30 19:24:00,
2013-09-30 13:30:00,80.5,37.0,29.63,WSW,237,10.0,10.0,21,0.00,,,0.00,Wunderground v.1.15,2013-09-30 19:30:00,
2013-09-30 13:36:00,80.8,36.0,29.62,West,278,10.0,11.0,20,0.00,,,0.00,Wunderground v.1.15,2013-09-30 19:36:00,
2013-09-30 13:42:00,81.5,36.5,29.62,West,271,10.0,12.0,20,0.00,,,0.00,Wunderground v.1.15,2013-09-30 19:42:00,
2013-09-30 13:48:00,81.9,36.9,29.62,West,269,9.0,12.0,20,0.00,,,0.00,Wunderground v.1.15,2013-09-30 19:48:00,
2013-09-30 13:54:00,83.1,36.6,29.61,WSW,252,10.0,15.0,19,0.00,,,0.00,Wunderground v.1.15,2013-09-30 19:54:00,
2013-09-30 14:00:00,83.8,35.8,29.61,WSW,258,12.0,14.0,18,0.00,,,0.00,Wunderground v.1.15,2013-09-30 20:00:00,
2013-09-30 14:06:00,84.2,36.1,29.61,West,268,14.0,19.0,18,0.00,,,0.00,Wunderground v.1.15,2013-09-30 20:06:00,
2013-09-30 14:12:00,84.3,34.7,29.61,SW,232,13.0,15.0,17,0.00,,,0.00,Wunderground v.1.15,2013-09-30 20:12:00,
2013-09-30 14:18:00,84.7,36.5,29.61,West,275,13.0,15.0,18,0.00,,,0.00,Wunderground v.1.15,2013-09-30 20:18:00,
2013-09-30 14:24:00,85.2,36.9,29.61,West,266,13.0,22.0,18,0.00,,,0.00,Wunderground v.1.15,2013-09-30 20:24:00,
2013-09-30 14:30:00,84.5,34.9,29.60,WSW,251,16.0,17.0,17,0.00,,,0.00,Wunderground v.1.15,2013-09-30 20:30:00,
2013-09-30 14:36:00,84.6,36.4,29.61,WNW,289,16.0,24.0,18,0.00,,,0.00,Wunderground v.1.15,2013-09-30 20:36:00,
2013-09-30 14:42:00,84.8,36.6,29.61,WSW,256,14.0,15.0,18,0.00,,,0.00,Wunderground v.1.15,2013-09-30 20:42:00,
2013-09-30 14:48:00,84.8,36.6,29.61,West,260,14.0,20.0,18,0.00,,,0.00,Wunderground v.1.15,2013-09-30 20:48:00,
2013-09-30 14:54:00,84.7,36.5,29.60,West,280,14.0,15.0,18,0.00,,,0.00,Wunderground v.1.15,2013-09-30 20:54:00,
2013-09-30 15:00:00,84.9,36.7,29.60,WSW,249,14.0,14.0,18,0.00,,,0.00,Wunderground v.1.15,2013-09-30 21:00:00,
2013-09-30 15:06:00,85.0,36.7,29.60,WSW,248,14.0,23.0,18,0.00,,,0.00,Wunderground v.1.15,2013-09-30 21:06:00,
2013-09-30 15:12:00,84.9,36.7,29.60,West,260,15.0,16.0,18,0.00,,,0.00,Wunderground v.1.15,2013-09-30 21:12:00,
2013-09-30 15:18:00,85.0,36.7,29.59,SW,218,15.0,21.0,18,0.00,,,0.00,Wunderground v.1.15,2013-09-30 21:18:00,
2013-09-30 15:24:00,85.3,37.0,29.59,WSW,256,15.0,18.0,18,0.00,,,0.00,Wunderground v.1.15,2013-09-30 21:24:00,
2013-09-30 15:30:00,85.6,37.2,29.59,WSW,258,16.0,16.0,18,0.00,,,0.00,Wunderground v.1.15,2013-09-30 21:30:00,
2013-09-30 15:36:00,85.0,36.7,29.59,WSW,248,20.0,30.0,18,0.00,,,0.00,Wunderground v.1.15,2013-09-30 21:36:00,
2013-09-30 15:42:00,85.0,36.7,29.59,West,259,20.0,21.0,18,0.00,,,0.00,Wunderground v.1.15,2013-09-30 21:42:00,
2013-09-30 15:48:00,85.5,37.1,29.59,WSW,239,16.0,28.0,18,0.00,,,0.00,Wunderground v.1.15,2013-09-30 21:48:00,
2013-09-30 15:54:00,85.2,36.9,29.59,West,281,16.0,24.0,18,0.00,,,0.00,Wunderground v.1.15,2013-09-30 21:54:00,
2013-09-30 16:00:00,85.1,36.8,29.59,WSW,244,18.0,18.0,18,0.00,,,0.00,Wunderground v.1.15,2013-09-30 22:00:00,
2013-09-30 16:06:00,85.3,37.0,29.60,West,262,15.0,18.0,18,0.00,,,0.00,Wunderground v.1.15,2013-09-30 22:06:00,
2013-09-30 16:12:00,85.2,36.9,29.60,West,268,13.0,13.0,18,0.00,,,0.00,Wunderground v.1.15,2013-09-30 22:12:00,
2013-09-30 16:18:00,85.0,36.7,29.60,West,276,14.0,19.0,18,0.00,,,0.00,Wunderground v.1.15,2013-09-30 22:18:00,
2013-09-30 16:24:00,84.9,36.7,29.60,WSW,250,14.0,17.0,18,0.00,,,0.00,Wunderground v.1.15,2013-09-30 22:24:00,
2013-09-30 16:30:00,84.9,36.7,29.60,WNW,287,13.0,13.0,18,0.00,,,0.00,Wunderground v.1.15,2013-09-30 22:30:00,
2013-09-30 16:36:00,85.0,36.7,29.60,West,273,12.0,14.0,18,0.00,,,0.00,Wunderground v.1.15,2013-09-30 22:36:00,
2013-09-30 16:42:00,84.7,35.0,29.61,WNW,303,14.0,25.0,17,0.00,,,0.00,Wunderground v.1.15,2013-09-30 22:42:00,
2013-09-30 16:48:00,84.1,36.0,29.61,West,259,17.0,25.0,18,0.00,,,0.00,Wunderground v.1.15,2013-09-30 22:48:00,
2013-09-30 16:54:00,84.0,35.9,29.61,West,270,17.0,24.0,18,0.00,,,0.00,Wunderground v.1.15,2013-09-30 22:54:00,
2013-09-30 17:00:00,84.1,36.0,29.62,WNW,289,15.0,15.0,18,0.00,,,0.00,Wunderground v.1.15,2013-09-30 23:00:00,
2013-09-30 17:06:00,84.2,34.6,29.62,WSW,258,13.0,16.0,17,0.00,,,0.00,Wunderground v.1.15,2013-09-30 23:06:00,
2013-09-30 17:12:00,83.9,34.4,29.62,WSW,256,16.0,18.0,17,0.00,,,0.00,Wunderground v.1.15,2013-09-30 23:12:00,
2013-09-30 17:18:00,83.7,35.7,29.63,WSW,248,15.0,18.0,18,0.00,,,0.00,Wunderground v.1.15,2013-09-30 23:18:00,
2013-09-30 17:24:00,83.2,35.3,29.64,West,278,13.0,19.0,18,0.00,,,0.00,Wunderground v.1.15,2013-09-30 23:24:00,
2013-09-30 17:30:00,82.7,34.9,29.64,West,262,14.0,14.0,18,0.00,,,0.00,Wunderground v.1.15,2013-09-30 23:30:00,
2013-09-30 17:36:00,82.4,36.0,29.65,West,262,14.0,14.0,19,0.00,,,0.00,Wunderground v.1.15,2013-09-30 23:36:00,
2013-09-30 17:42:00,82.1,35.7,29.65,West,277,13.0,14.0,19,0.00,,,0.00,Wunderground v.1.15,2013-09-30 23:42:00,
2013-09-30 17:48:00,80.0,42.0,29.70,NNW,328,12.0,18.0,26,0.00,,,0.00,Wunderground v.1.15,2013-09-30 23:48:00,
2013-09-30 17:54:00,66.2,46.5,29.70,NNW,332,20.0,30.0,49,0.00,,,0.00,Wunderground v.1.15,2013-09-30 23:54:00,
2013-09-30 18:00:00,62.6,47.1,29.71,NNW,328,26.0,26.0,57,0.00,,,0.00,Wunderground v.1.15,2013-10-01 00:00:00,
2013-09-30 18:06:00,60.6,47.9,29.72,NNW,328,30.0,30.0,63,0.00,,,0.00,Wunderground v.1.15,2013-10-01 00:06:00,
2013-09-30 18:12:00,59.7,47.9,29.73,NNW,334,27.0,29.0,65,0.00,,,0.00,Wunderground v.1.15,2013-10-01 00:12:00,
2013-09-30 18:18:00,58.9,48.0,29.74,NW,304,24.0,34.0,67,0.00,,,0.00,Wunderground v.1.15,2013-10-01 00:18:00,
2013-09-30 18:24:00,58.3,47.8,29.75,NW,322,25.0,25.0,68,0.00,,,0.00,Wunderground v.1.15,2013-10-01 00:24:00,
2013-09-30 18:30:00,57.8,47.7,29.76,NNW,341,23.0,23.0,69,0.00,,,0.00,Wunderground v.1.15,2013-10-01 00:30:00,
2013-09-30 18:36:00,57.5,47.4,29.77,NW,312,23.0,23.0,69,0.00,,,0.00,Wunderground v.1.15,2013-10-01 00:36:00,
2013-09-30 18:42:00,57.4,47.3,29.78,NW,310,21.0,27.0,69,0.00,,,0.00,Wunderground v.1.15,2013-10-01 00:42:00,
2013-09-30 18:48:00,56.9,45.7,29.79,NW,310,21.0,27.0,66,0.00,,,0.00,Wunderground v.1.15,2013-10-01 00:48:00,
2013-09-30 18:54:00,56.5,45.3,29.80,NW,325,22.0,22.0,66,0.00,,,0.00,Wunderground v.1.15,2013-10-01 00:54:00,
2013-09-30 19:00:00,56.3,45.1,29.81,NW,324,21.0,25.0,66,0.00,,,0.00,Wunderground v.1.15,2013-10-01 01:00:00,
2013-09-30 19:06:00,56.0,44.8,29.81,NNW,335,20.0,25.0,66,0.00,,,0.00,Wunderground v.1.15,2013-10-01 01:06:00,
2013-09-30 19:12:00,55.9,44.7,29.83,NNW,330,15.0,16.0,66,0.00,,,0.00,Wunderground v.1.15,2013-10-01 01:12:00,
2013-09-30 19:18:00,55.8,44.2,29.84,NW,312,13.0,20.0,65,0.00,,,0.00,Wunderground v.1.15,2013-10-01 01:18:00,
2013-09-30 19:24:00,55.8,43.8,29.84,WNW,297,15.0,20.0,64,0.00,,,0.00,Wunderground v.1.15,2013-10-01 01:24:00,
2013-09-30 19:30:00,55.7,43.7,29.84,WNW,299,14.0,14.0,64,0.00,,,0.00,Wunderground v.1.15,2013-10-01 01:30:00,
2013-09-30 19:36:00,55.6,43.6,29.84,NNW,328,12.0,16.0,64,0.00,,,0.00,Wunderground v.1.15,2013-10-01 01:36:00,
2013-09-30 19:42:00,55.5,43.1,29.84,NW,320,12.0,12.0,63,0.00,,,0.00,Wunderground v.1.15,2013-10-01 01:42:00,
2013-09-30 19:48:00,55.5,43.1,29.85,NW,317,11.0,14.0,63,0.00,,,0.00,Wunderground v.1.15,2013-10-01 01:48:00,
2013-09-30 19:54:00,55.4,43.0,29.86,NW,326,11.0,13.0,63,0.00,,,0.00,Wunderground v.1.15,2013-10-01 01:54:00,
2013-09-30 20:00:00,55.2,42.4,29.86,WNW,296,10.0,12.0,62,0.00,,,0.00,Wunderground v.1.15,2013-10-01 02:00:00,
2013-09-30 20:06:00,55.1,42.3,29.86,NW,310,9.0,12.0,62,0.00,,,0.00,Wunderground v.1.15,2013-10-01 02:06:00,
2013-09-30 20:12:00,55.1,41.9,29.87,NW,310,9.0,11.0,61,0.00,,,0.00,Wunderground v.1.15,2013-10-01 02:12:00,
2013-09-30 20:18:00,55.2,41.5,29.87,WNW,301,10.0,13.0,60,0.00,,,0.00,Wunderground v.1.15,2013-10-01 02:18:00,
2013-09-30 20:24:00,55.1,41.0,29.87,NW,318,10.0,15.0,59,0.00,,,0.00,Wunderground v.1.15,2013-10-01 02:24:00,
2013-09-30 20:30:00,55.0,40.9,29.87,NW,314,9.0,10.0,59,0.00,,,0.00,Wunderground v.1.15,2013-10-01 02:30:00,
2013-09-30 20:36:00,54.9,40.8,29.87,NW,313,9.0,14.0,59,0.00,,,0.00,Wunderground v.1.15,2013-10-01 02:36:00,
2013-09-30 20:42:00,54.7,40.2,29.87,NW,308,9.0,9.0,58,0.00,,,0.00,Wunderground v.1.15,2013-10-01 02:42:00,
2013-09-30 20:48:00,54.8,40.3,29.87,WNW,299,11.0,16.0,58,0.00,,,0.00,Wunderground v.1.15,2013-10-01 02:48:00,
2013-09-30 20:54:00,54.9,39.9,29.88,NW,326,12.0,16.0,57,0.00,,,0.00,Wunderground v.1.15,2013-10-01 02:54:00,
2013-09-30 21:00:00,54.8,39.8,29.87,NW,316,10.0,10.0,57,0.00,,,0.00,Wunderground v.1.15,2013-10-01 03:00:00,
2013-09-30 21:06:00,54.7,39.8,29.88,NNW,327,9.0,10.0,57,0.00,,,0.00,Wunderground v.1.15,2013-10-01 03:06:00,
2013-09-30 21:12:00,54.8,39.8,29.88,NW,310,8.0,8.0,57,0.00,,,0.00,Wunderground v.1.15,2013-10-01 03:12:00,
2013-09-30 21:18:00,54.7,38.8,29.88,NNW,327,7.0,8.0,55,0.00,,,0.00,Wunderground v.1.15,2013-10-01 03:18:00,
2013-09-30 21:24:00,55.2,37.9,29.88,NW,312,8.0,11.0,52,0.00,,,0.00,Wunderground v.1.15,2013-10-01 03:24:00,
2013-09-30 21:30:00,56.0,36.0,29.88,WNW,297,9.0,10.0,47,0.00,,,0.00,Wunderground v.1.15,2013-10-01 03:30:00,
2013-09-30 21:36:00,56.6,35.5,29.89,NW,314,9.0,13.0,45,0.00,,,0.00,Wunderground v.1.15,2013-10-01 03:36:00,
2013-09-30 21:42:00,56.5,35.4,29.89,WNW,300,8.0,9.0,45,0.00,,,0.00,Wunderground v.1.15,2013-10-01 03:42:00,
2013-09-30 21:48:00,56.3,35.2,29.90,NNW,332,8.0,11.0,45,0.00,,,0.00,Wunderground v.1.15,2013-10-01 03:48:00,
2013-09-30 21:54:00,55.8,34.8,29.89,NNW,327,7.0,8.0,45,0.00,,,0.00,Wunderground v.1.15,2013-10-01 03:54:00,
2013-09-30 22:00:00,55.4,34.4,29.90,NW,312,6.0,6.0,45,0.00,,,0.00,Wunderground v.1.15,2013-10-01 04:00:00,
2013-09-30 22:02:00,55.3,34.3,29.90,NW,316,5.0,7.0,45,0.00,,,0.00,Wunderground v.1.15,2013-10-01 04:02:00,
2013-09-30 22:06:00,55.3,34.3,29.91,NW,323,4.0,7.0,45,0.00,,,0.00,Wunderground v.1.15,2013-10-01 04:06:00,
2013-09-30 22:08:00,55.3,34.3,29.91,NW,307,4.0,9.0,45,0.00,,,0.00,Wunderground v.1.15,2013-10-01 04:08:00,
2013-09-30 22:10:00,55.4,34.4,29.91,NW,314,4.0,7.0,45,0.00,,,0.00,Wunderground v.1.15,2013-10-01 04:10:00,
2013-09-30 22:16:00,55.4,33.8,29.91,NNW,328,6.0,8.0,44,0.00,,,0.00,Wunderground v.1.15,2013-10-01 04:16:00,
2013-09-30 22:22:00,55.4,33.8,29.91,WNW,302,6.0,7.0,44,0.00,,,0.00,Wunderground v.1.15,2013-10-01 04:22:00,
2013-09-30 22:28:00,55.7,33.5,29.92,WNW,300,5.0,8.0,43,0.00,,,0.00,Wunderground v.1.15,2013-10-01 04:28:00,
2013-09-30 22:34:00,55.8,33.6,29.91,NW,305,5.0,8.0,43,0.00,,,0.00,Wunderground v.1.15,2013-10-01 04:34:00,
2013-09-30 22:40:00,55.1,33.0,29.91,NW,310,4.0,7.0,43,0.00,,,0.00,Wunderground v.1.15,2013-10-01 04:40:00,
2013-09-30 22:44:00,55.3,33.2,29.91,WNW,295,6.0,8.0,43,0.00,,,0.00,Wunderground v.1.15,2013-10-01 04:44:00,
2013-09-30 22:50:00,54.9,32.8,29.91,WNW,294,7.0,7.0,43,0.00,,,0.00,Wunderground v.1.15,2013-10-01 04:50:00,
2013-09-30 22:56:00,55.4,32.7,29.92,WNW,285,9.0,13.0,42,0.00,,,0.00,Wunderground v.1.15,2013-10-01 04:56:00,
2013-09-30 23:02:00,56.8,31.4,29.92,WNW,301,11.0,13.0,38,0.00,,,0.00,Wunderground v.1.15,2013-10-01 05:02:00,
2013-09-30 23:08:00,57.7,31.6,29.92,NW,318,12.0,18.0,37,0.00,,,0.00,Wunderground v.1.15,2013-10-01 05:08:00,
2013-09-30 23:14:00,57.6,30.8,29.92,NW,310,11.0,13.0,36,0.00,,,0.00,Wunderground v.1.15,2013-10-01 05:14:00,
2013-09-30 23:20:00,57.5,30.7,29.92,NW,308,11.0,11.0,36,0.00,,,0.00,Wunderground v.1.15,2013-10-01 05:20:00,
2013-09-30 23:26:00,57.8,29.6,29.92,WNW,303,11.0,16.0,34,0.00,,,0.00,Wunderground v.1.15,2013-10-01 05:26:00,
2013-09-30 23:32:00,58.4,29.4,29.92,NW,318,12.0,13.0,33,0.00,,,0.00,Wunderground v.1.15,2013-10-01 05:32:00,
2013-09-30 23:38:00,58.8,29.7,29.91,NNW,336,12.0,17.0,33,0.00,,,0.00,Wunderground v.1.15,2013-10-01 05:38:00,
2013-09-30 23:44:00,58.9,29.8,29.92,NW,313,14.0,19.0,33,0.00,,,0.00,Wunderground v.1.15,2013-10-01 05:44:00,
2013-09-30 23:50:00,58.8,29.7,29.92,WNW,293,13.0,14.0,33,0.00,,,0.00,Wunderground v.1.15,2013-10-01 05:50:00,
2013-09-30 23:56:00,58.7,29.6,29.92,NW,305,13.0,15.0,33,0.00,,,0.00,Wunderground v.1.15,2013-10-01 05:56:00,